Regional Weather Roundup
Issued by NWS Sioux Falls, SD

Home | Current Version | Previous Version | Text Only | Print | Product List | Glossary On
Versions: 1 2 3 4 5 6 7 8 9 10 11 12 13 14 15 16 17 18 19 20 21 22 23 24 25 26 27 28 29 30 31 32 33 34 35 36 37 38 39 40 41 42 43 44 45 46 47 48 49 50
000
ASUS43 KFSD 011910
RWRFSD

WEATHER ROUNDUP FOR SE SOUTH DAKOTA/SW MINNESOTA/NW IOWA
NATIONAL WEATHER SERVICE SIOUX FALLS SD
200 PM CDT WED JUL 01 2015

NOTE: "FAIR" INDICATES FEW OR NO CLOUDS BELOW 12,000 FEET WITH NO
SIGNIFICANT WEATHER AND OR OBSTRUCTIONS TO VISIBILITY.


SDZ038>040-050-052>070-012000-
SOUTHEAST SOUTH DAKOTA

CITY           SKY/WX    TMP DP  RH WIND       PRES   REMARKS
BROOKINGS      CLOUDY    72  61  68 E14       29.97S
CHAMBERLAIN    CLOUDY    77  66  70 SE8       29.92S
HURON          PTSUNNY   76  65  68 SE9       29.91R
MADISON        CLOUDY    72  66  83 S15       29.95F
MITCHELL       CLOUDY    77  66  68 SE9       29.92S
SIOUX FALLS    CLOUDY    70  62  76 E10       29.95S
WINNER         MOCLDY    83  64  52 VRB7      29.90F
YANKTON        PTSUNNY   75  66  73 E10       29.89F
$$

MNZ071-072-080-081-089-090-097-098-012000-
SOUTHWEST MINNESOTA

CITY           SKY/WX    TMP DP  RH WIND       PRES   REMARKS
FAIRMONT       CLOUDY    66  54  63 SE9       29.98S
JACKSON        PTSUNNY   72  50  46 SE13      29.99R
LUVERNE        CLOUDY    73  59  60 E9        29.96S
MARSHALL       MOSUNNY   70  55  60 S12       29.97S
MONTEVIDEO     MOSUNNY   70  57  64 S6        30.00R
PIPESTONE      MOSUNNY   72  57  60 SE12      29.97R
REDWOOD FALLS  MOSUNNY   69  54  58 E8        29.99R
TRACY          CLOUDY    69  57  65 SE7       29.98S
WINDOM         MOSUNNY   70  48  46 SE10      29.98S
WORTHINGTON    PTSUNNY   72  55  56 E12G18    29.97S
$$

IAZ001>003-012>014-020>022-031-032-NEZ013-014-SDZ071-012000-
NORTHWEST IOWA

CITY           SKY/WX    TMP DP  RH WIND       PRES   REMARKS
CHEROKEE       PTSUNNY   73  65  76 E8G16     29.94S
DENISON        CLOUDY    72  66  83 E10       29.90S
ESTHERVILLE    PTSUNNY   68  55  63 E9        29.98S
LE MARS        CLOUDY    73  66  78 E12       29.93S
ORANGE CITY    PTSUNNY   72  63  73 E8        29.95R
SHELDON        CLOUDY    72  72 100 E10G17    29.94S
SIOUX CITY     PTSUNNY   77  66  68 E9        29.90S
SPENCER        PTSUNNY   70  57  63 E15       29.96S
STORM LAKE     PTSUNNY   72  63  73 E13       29.95S
$$

ABBREVIATIONS USED IN REMARKS
   TC - TEMPERATURE IN CELSIUS
  WCI - WIND CHILL INDEX
   HX - HEAT INDEX
  VSB - VISIBILITY




USA.gov is the U.S. government's official web portal to all federal, state and local government web resources and services.